Meteo pe oră la Dziurdziow

Astăzi, 2 Martie, Marţi

Timp Temperatura Precipitaţii Vânt Presiune Umiditate
00:00 -1°C° 0 mm 0 m/s 740 mmHg 94%
01:00 -1°C° 0 mm 0 m/s 740 mmHg 94%
02:00 -1°C° 0 mm 0 m/s 740 mmHg 93%
03:00 0°C° 0 mm 1 m/s 740 mmHg 93%
04:00 0°C° 0 mm 1 m/s 739 mmHg 92%
05:00 0°C° 0 mm 1 m/s 739 mmHg 89%
06:00 +1°C° 0 mm 1 m/s 739 mmHg 87%
07:00 +1°C° 0 mm 1 m/s 739 mmHg 84%
08:00 +3°C° 0 mm 1 m/s 739 mmHg 77%
09:00 +5°C° 0 mm 1 m/s 739 mmHg 69%
10:00 +6°C° 0 mm 2 m/s 739 mmHg 62%
11:00 +7°C° 0 mm 2 m/s 739 mmHg 60%
12:00 +8°C° 0 mm 2 m/s 739 mmHg 59%
13:00 +9°C° 0 mm 3 m/s 739 mmHg 57%
14:00 +8°C° 0 mm 2 m/s 738 mmHg 62%
15:00 +8°C° 0 mm 2 m/s 738 mmHg 66%
16:00 +7°C° 0 mm 2 m/s 738 mmHg 71%
17:00 +5°C° 0 mm 2 m/s 738 mmHg 74%
18:00 +4°C° 0 mm 2 m/s 738 mmHg 77%
19:00 +4°C° 0 mm 1 m/s 738 mmHg 81%
20:00 +3°C° 0 mm 1 m/s 738 mmHg 81%
21:00 +3°C° 0 mm 1 m/s 738 mmHg 82%
22:00 +3°C° 0 mm 1 m/s 738 mmHg 82%
23:00 +2°C° 0 mm 1 m/s 738 mmHg 84%

Mâine, 3 Martie, Miercuri

Timp Temperatura Precipitaţii Vânt Presiune Umiditate
00:00 +2°C° 0 mm 1 m/s 738 mmHg 85%
01:00 +2°C° 0 mm 1 m/s 739 mmHg 87%
02:00 +2°C° 0 mm 1 m/s 738 mmHg 88%
03:00 +2°C° 0 mm 1 m/s 738 mmHg 88%
04:00 +2°C° 0 mm 1 m/s 737 mmHg 89%
05:00 +2°C° 0 mm 1 m/s 737 mmHg 88%
06:00 +2°C° 0 mm 1 m/s 738 mmHg 88%
07:00 +2°C° 0 mm 1 m/s 738 mmHg 87%
08:00 +4°C° 0 mm 1 m/s 738 mmHg 80%
09:00 +7°C° 0 mm 1 m/s 738 mmHg 73%
10:00 +9°C° 0 mm 1 m/s 737 mmHg 66%
11:00 +9°C° 0 mm 1 m/s 737 mmHg 64%
12:00 +10°C° 0 mm 1 m/s 737 mmHg 62%
13:00 +10°C° 0 mm 2 m/s 737 mmHg 59%
14:00 +9°C° 0 mm 2 m/s 736 mmHg 64%
15:00 +8°C° 0 mm 2 m/s 735 mmHg 69%
16:00 +8°C° 0 mm 2 m/s 734 mmHg 74%
17:00 +6°C° 0 mm 2 m/s 734 mmHg 79%
18:00 +5°C° 0 mm 2 m/s 734 mmHg 84%
19:00 +3°C° 0 mm 2 m/s 734 mmHg 89%
20:00 +2°C° 0 mm 3 m/s 733 mmHg 89%
21:00 +2°C° 0 mm 3 m/s 733 mmHg 89%
22:00 +2°C° 0 mm 3 m/s 733 mmHg 89%
23:00 +2°C° 0 mm 3 m/s 732 mmHg 89%

Poimâine, 4 Martie, Joi

Timp Temperatura Precipitaţii Vânt Presiune Umiditate
00:00 +2°C° 0 mm 3 m/s 732 mmHg 89%
01:00 +1°C° 0 mm 4 m/s 732 mmHg 89%
02:00 +1°C° 0 mm 4 m/s 731 mmHg 89%
03:00 +1°C° 0 mm 4 m/s 730 mmHg 89%
04:00 +1°C° 0 mm 4 m/s 730 mmHg 89%
05:00 +1°C° 0 mm 4 m/s 729 mmHg 90%
06:00 0°C° 0 mm 4 m/s 729 mmHg 90%
07:00 0°C° 0 mm 4 m/s 729 mmHg 90%
08:00 +3°C° 0 mm 4 m/s 728 mmHg 86%
09:00 +4°C° 0 mm 4 m/s 728 mmHg 81%
10:00 +5°C° 0 mm 4 m/s 727 mmHg 76%
11:00 +6°C° 0 mm 4 m/s 727 mmHg 74%
12:00 +6°C° 0 mm 4 m/s 727 mmHg 72%
13:00 +7°C° 0 mm 5 m/s 726 mmHg 70%
14:00 +7°C° 0 mm 4 m/s 726 mmHg 73%
15:00 +6°C° 0 mm 4 m/s 725 mmHg 75%
16:00 +6°C° 0 mm 4 m/s 724 mmHg 77%
17:00 +5°C° 0 mm 4 m/s 724 mmHg 80%
18:00 +4°C° 0 mm 3 m/s 724 mmHg 83%
19:00 +4°C° 0 mm 3 m/s 724 mmHg 85%
20:00 +4°C° 0 mm 3 m/s 724 mmHg 86%
21:00 +4°C° 0 mm 3 m/s 724 mmHg 86%
22:00 +4°C° 0 mm 3 m/s 723 mmHg 87%
23:00 +4°C° 0 mm 3 m/s 723 mmHg 87%

5 Martie, Vineri

Timp Temperatura Precipitaţii Vânt Presiune Umiditate
00:00 +4°C° 0 mm 3 m/s 723 mmHg 87%
01:00 +4°C° 0 mm 3 m/s 722 mmHg 88%
02:00 +4°C° 0.2 mm 3 m/s 722 mmHg 89%
03:00 +3°C° 0.2 mm 3 m/s 722 mmHg 89%
04:00 +3°C° 0.2 mm 3 m/s 721 mmHg 90%
05:00 +4°C° 0.9 mm 2 m/s 721 mmHg 93%
06:00 +4°C° 0.9 mm 2 m/s 722 mmHg 95%
07:00 +3°C° 0.9 mm 2 m/s 722 mmHg 97%
08:00 +3°C° 0.2 mm 2 m/s 722 mmHg 97%
09:00 +2°C° 0.2 mm 2 m/s 722 mmHg 96%
10:00 +2°C° 0.2 mm 2 m/s 723 mmHg 95%
11:00 +2°C° 0.3 mm 2 m/s 723 mmHg 95%
12:00 +1°C° 0.3 mm 3 m/s 723 mmHg 95%
13:00 0°C° 0.3 mm 3 m/s 724 mmHg 95%
14:00 0°C° 0.6 mm 3 m/s 724 mmHg 94%
15:00 -2°C° 0.6 mm 4 m/s 725 mmHg 94%
16:00 -2°C° 0.6 mm 4 m/s 725 mmHg 93%
17:00 -2°C° 0.3 mm 4 m/s 726 mmHg 91%
18:00 -3°C° 0.3 mm 4 m/s 727 mmHg 89%
19:00 -4°C° 0.3 mm 4 m/s 728 mmHg 88%
20:00 -4°C° 0.1 mm 3 m/s 728 mmHg 85%
21:00 -5°C° 0.1 mm 3 m/s 729 mmHg 82%
22:00 -5°C° 0.1 mm 3 m/s 730 mmHg 79%
23:00 -5°C° 0 mm 2 m/s 730 mmHg 79%

6 Martie, Sâmbătă

Timp Temperatura Precipitaţii Vânt Presiune Umiditate
00:00 -5°C° 0 mm 2 m/s 730 mmHg 79%
01:00 -4°C° 0 mm 1 m/s 730 mmHg 79%
02:00 -4°C° 0 mm 1 m/s 731 mmHg 79%
03:00 -4°C° 0 mm 1 m/s 731 mmHg 78%
04:00 -4°C° 0 mm 1 m/s 731 mmHg 78%
05:00 -3°C° 0 mm 1 m/s 732 mmHg 79%
06:00 -5°C° 0 mm 2 m/s 732 mmHg 80%
07:00 -4°C° 0 mm 2 m/s 733 mmHg 80%
08:00 -5°C° 0.2 mm 3 m/s 733 mmHg 77%
09:00 -4°C° 0.2 mm 4 m/s 734 mmHg 74%
10:00 -4°C° 0.2 mm 5 m/s 734 mmHg 71%
11:00 -4°C° 0.2 mm 5 m/s 735 mmHg 66%
12:00 -4°C° 0.2 mm 5 m/s 735 mmHg 61%
13:00 -2°C° 0.2 mm 5 m/s 735 mmHg 56%
14:00 -2°C° 0.1 mm 4 m/s 735 mmHg 56%
15:00 -3°C° 0.1 mm 4 m/s 735 mmHg 56%
16:00 -2°C° 0.1 mm 3 m/s 736 mmHg 56%
17:00 -4°C° 0 mm 3 m/s 736 mmHg 61%
18:00 -4°C° 0 mm 2 m/s 736 mmHg 66%
19:00 -3°C° 0 mm 1 m/s 737 mmHg 71%
20:00 -3°C° 0 mm 1 m/s 737 mmHg 71%
21:00 -3°C° 0 mm 1 m/s 737 mmHg 71%
22:00 -3°C° 0 mm 1 m/s 738 mmHg 70%
23:00 -3°C° 0 mm 1 m/s 737 mmHg 71%

7 Martie, Duminică

Timp Temperatura Precipitaţii Vânt Presiune Umiditate
00:00 -3°C° 0 mm 1 m/s 737 mmHg 71%
01:00 -5°C° 0 mm 2 m/s 737 mmHg 72%
02:00 -5°C° 0 mm 2 m/s 737 mmHg 72%
03:00 -5°C° 0 mm 2 m/s 737 mmHg 72%
04:00 -5°C° 0 mm 2 m/s 736 mmHg 72%
05:00 -6°C° 0 mm 3 m/s 736 mmHg 70%
06:00 -6°C° 0 mm 3 m/s 736 mmHg 68%
07:00 -6°C° 0 mm 3 m/s 736 mmHg 66%
08:00 -4°C° 0 mm 4 m/s 736 mmHg 61%
09:00 -3°C° 0 mm 4 m/s 736 mmHg 55%
10:00 -1°C° 0 mm 4 m/s 736 mmHg 50%
11:00 -1°C° 0 mm 5 m/s 735 mmHg 49%
12:00 0°C° 0 mm 5 m/s 735 mmHg 48%
13:00 +1°C° 0 mm 5 m/s 734 mmHg 47%
14:00 0°C° 0 mm 5 m/s 733 mmHg 49%
15:00 0°C° 0 mm 5 m/s 733 mmHg 52%
16:00 0°C° 0 mm 5 m/s 732 mmHg 55%
17:00 -1°C° 0 mm 4 m/s 732 mmHg 60%
18:00 -2°C° 0 mm 4 m/s 731 mmHg 64%
19:00 -3°C° 0 mm 4 m/s 731 mmHg 69%
20:00 -4°C° 0 mm 4 m/s 731 mmHg 71%
21:00 -4°C° 0 mm 4 m/s 731 mmHg 72%
22:00 -4°C° 0 mm 3 m/s 730 mmHg 74%
23:00 -4°C° 0 mm 3 m/s 730 mmHg 74%
Arată mai mult

Formular de consimțământ

Meteoprog și furnizorii noștri de servicii pot stoca și accesa date personale, precum cookies, identificatori de dispozitiv sau alte tehnologii similare pe dispozitivul dumneavoastră și procesa astfel de date pentru a personaliza conținutul și reclamele, dar și pentru a oferi caracteristici de social media și pentru a analiza traficul.

  • Stocarea și/sau accesarea informațiilor pe dispozitivul dumneavoastră

    Cookies, identificatori de dispozitiv sau alte informații pot fi stocate sau accesate pe dispozitiv în scopurile indicate mai sus.

  • Reclame și conținut personalizat, evaluarea reclamelor și a conținutului, informații despre audiențe și dezvoltarea produselor

    Reclamele și conținutul pot fi personalizate pe baza unui profil. Pot fi adăugate date suplimentare pentru a personaliza mai bine reclamele și conținutul. Performanța reclamelor și conținutului poate fi măsurată. Pot fi obținute informații despre utilizatorii care au văzut reclamele și conținutul. Aceste date pot fi utilizate pentru a dezvolta sau îmbunătăți experiența utilizatorilor, sistemele și software-ul.

Dând clic pe ‘Sunt de acord’, permiteți utilizarea cookie-urilor menționate, a identificatorilor de dispozitiv, balizelor web sau altor tehnologii similare. Setările pot fi modificate din browser-ul dispozitivului dumneavoastră.

În anumite scopuri, interesele legitime pot prima asupra consimțământului. Puteți citi mai multe informații în acest sens în Politica privind Confidențialitatea Datelor și Cookie.